Location: Bidwell Hollow
(37.7387°N, 90.1707°W)
Time: 00:38:58
(UTC+00:00)

S-56A Canister/Altair - Visible Passes

Search period start: 12 May 2026 00:00
Search period end: 22 May 2026 00:00
Orbit: 633 x 2484 km, 38.9° (Epoch: 11 May)

Date Brightness Start Highest point End Pass type
(mag) Time Alt. Az. Time Alt. Az. Time Alt. Az.
12 May 8.2 02:04:26 10° SSW 02:08:06 24° SSE 02:09:54 19° ESE visible
12 May 9.5 04:06:38 10° WSW 04:07:15 14° WSW 04:07:15 14° WSW visible
12 May 10.2 06:20:34 15° E 06:20:34 15° E 06:21:54 10° E visible
12 May 8.3 08:17:54 52° SW 08:18:45 55° SSW 08:27:38 10° SE visible
12 May 9.9 10:17:20 10° W 10:23:03 22° SSW 10:30:29 10° S visible
13 May 8.5 01:30:00 10° SSW 01:33:23 20° SSE 01:36:38 10° E visible
13 May 7.6 03:31:56 10° WSW 03:35:11 49° SW 03:35:11 49° SW visible
13 May 8.8 07:46:02 42° SE 07:46:02 42° SE 07:52:01 10° SE visible
13 May 9.6 09:43:24 14° WSW 09:47:54 24° SSW 09:55:20 10° SSE visible
14 May 7.0 02:57:11 10° WSW 03:01:36 65° SSE 03:02:55 43° E visible
14 May 10.0 07:14:25 18° ESE 07:14:25 18° ESE 07:16:27 10° ESE visible
14 May 9.2 09:11:47 25° SW 09:12:48 26° SSW 09:20:08 10° SSE visible
15 May 7.1 02:22:23 10° WSW 02:26:53 56° SSE 02:30:25 15° E visible
15 May 8.9 04:25:49 10° W 04:27:43 26° W 04:27:43 26° W visible
15 May 9.6 08:40:20 23° S 08:40:20 23° S 08:44:52 10° SSE visible
16 May 7.4 01:47:33 10° SW 01:52:11 48° SSE 01:56:27 10° E visible
16 May 7.3 03:51:03 10° W 03:55:01 69° WNW 03:55:01 69° WNW visible
16 May 10.4 08:08:57 12° SSE 08:08:57 12° SSE 08:09:37 10° SSE visible
17 May 7.1 03:16:14 10° W 03:20:42 81° N 03:22:12 42° ENE visible
18 May 7.1 02:41:20 10° W 02:45:57 86° N 02:49:15 18° E visible
18 May 9.1 04:45:00 10° W 04:46:31 22° W 04:46:31 22° W visible
19 May 7.1 02:06:20 10° WSW 02:11:12 88° SSE 02:15:39 10° E visible
19 May 7.8 04:10:15 10° W 04:13:29 49° WNW 04:13:29 49° WNW visible
20 May 7.2 01:31:17 10° WSW 01:36:27 80° SSE 01:40:52 10° E visible
20 May 7.1 03:35:26 10° W 03:39:55 80° N 03:40:25 68° ENE visible
21 May 7.1 03:00:32 10° W 03:05:09 77° N 03:07:17 30° E visible
21 May 9.7 05:04:10 10° W 05:04:32 12° W 05:04:32 12° W visible
